Location: Ajisawe
(8.4333°N, 4.3833°E)
Time: 00:28:54
(UTC+00:00)

A-11 Canister half - Pass Details

Date: 22 April 2021
Orbit: 1514 x 1685 km, 47.2° (Epoch: 15 May)

Event Time Altitude Azimuth Distance (km) Brightness Sun altitude
Rises 19:11:18 0° 255° (WSW) 4,649 12.5 -19.8°
Reaches altitude 10° 19:15:10 10° 269° (W) 3,668 12.0 -20.8°
Maximum altitude 19:22:02 23° 318° (NW) 2,784 11.0 -22.4°
Drops below altitude 10° 19:29:03 10° 7° (N) 3,715 11.1 -24.0°
Sets 19:33:04 0° 22° (NNE) 4,723 11.5 -25.0°
